Weather History for KSLB - May, 2012

Change the Weather History Date:

Wednesday, May 9, 2012

  Actual Average Record
Temperature  
Mean Temperature 54 °F -  
Max Temperature 66 °F 68 °F 91 °F (2011)
Min Temperature 43 °F 46 °F 37 °F (1997)
Degree Days  
Heating Degree Days 10    
Growing Degree Days 4 (Base 50)    
Moisture  
Dew Point 40 °F    
Average Humidity 62    
Maximum Humidity 89    
Minimum Humidity 32    
Precipitation  
Precipitation 0.00 in - - ()
Sea Level Pressure  
Sea Level Pressure 30.03 in    
Wind  
Wind Speed 8 mph (North)    
Max Wind Speed 13 mph    
Max Gust Speed 20 mph    
Visibility 10 miles    
Events      
Averages and records for this station are not official NWS values.
T = Trace of Precipitation, MM = Missing Value Source: NWS Daily Summary

Daily Weather History Graph

Daily Weather History Graph

Search for Another Location

Airport or City:

Trip Planner

Search our weather history database for the weather conditions in past years. The results will help you decide how hot, cold, wet, or windy it might be!

Date:

Astronomy

May. 09, 2012 Rise Set
Actual Time 6:04 AM CDT 8:30 PM CDT
Civil Twilight 5:33 AM CDT 9:02 PM CDT
Nautical Twilight 4:53 AM CDT 9:41 PM CDT
Astronomical Twilight 4:09 AM CDT 10:26 PM CDT
Moon No Moon Rise 9:19 AM CDT (5/9)
Length of Visible Light 15h 29m
Length of Day
14h 25m
Waning Gibbous, 82% of the Moon is Illuminated
May 9
Waning Gibbous
May 12
Last Quarter
May 20
New
May 28
First Quarter
Jun 4
Full

Hourly Weather History & Observations

Time (CDT) Temp. Windchill Dew Point Humidity Pressure Visibility Wind Dir Wind Speed Gust Speed Precip Events Conditions
12:15 AM 48.2 °F - 42.6 °F 81% 30.05 in 10.0 mi NW 9.2 mph - N/A   Clear
12:35 AM 47.7 °F - 42.4 °F 82% 30.05 in 10.0 mi NW 9.2 mph - N/A   Clear
12:55 AM 48.2 °F - 42.6 °F 81% 30.05 in 10.0 mi NW 9.2 mph - N/A   Clear
1:15 AM 47.5 °F - 42.6 °F 83% 30.05 in 10.0 mi NW 9.2 mph - N/A   Clear
1:35 AM 47.5 °F - 42.4 °F 83% 30.05 in 10.0 mi NW 10.4 mph - N/A   Clear
1:55 AM 46.4 °F 41.9 °F 42.3 °F 85% 30.05 in 10.0 mi NW 9.2 mph - N/A   Clear
2:15 AM 46.4 °F 41.9 °F 41.9 °F 84% 30.05 in 10.0 mi NW 9.2 mph - N/A   Clear
2:35 AM 46.4 °F 41.9 °F 41.5 °F 83% 30.05 in 10.0 mi NW 9.2 mph - N/A   Clear
2:55 AM 45.9 °F 41.2 °F 41.4 °F 84% 30.05 in 10.0 mi NW 9.2 mph - N/A   Clear
3:15 AM 46.0 °F 41.0 °F 41.2 °F 83% 30.05 in 10.0 mi NW 10.4 mph - N/A   Clear
3:35 AM 45.9 °F 41.2 °F 41.2 °F 84% 30.05 in 10.0 mi NNW 9.2 mph - N/A   Clear
3:55 AM 45.5 °F 40.3 °F 41.0 °F 84% 30.05 in 10.0 mi NW 10.4 mph - N/A   Clear
4:15 AM 45.0 °F 39.7 °F 40.6 °F 85% 30.05 in 10.0 mi NW 10.4 mph - N/A   Clear
4:35 AM 44.6 °F 39.7 °F 40.6 °F 86% 30.05 in 10.0 mi NW 9.2 mph - N/A   Clear
4:55 AM 44.6 °F 39.2 °F 40.5 °F 85% 30.06 in 10.0 mi NW 10.4 mph - N/A   Clear
5:15 AM 44.6 °F 39.2 °F 40.5 °F 85% 30.06 in 10.0 mi NW 10.4 mph - N/A   Clear
5:35 AM 44.1 °F 38.6 °F 40.5 °F 87% 30.06 in 10.0 mi NW 10.4 mph - N/A   Clear
5:55 AM 44.1 °F 38.6 °F 40.5 °F 87% 30.06 in 10.0 mi NW 10.4 mph - N/A   Clear
6:15 AM 43.7 °F 38.6 °F 40.5 °F 88% 30.06 in 10.0 mi NNW 9.2 mph - N/A   Clear
6:35 AM 43.5 °F 38.3 °F 40.5 °F 89% 30.07 in 7.0 mi NNW 9.2 mph - N/A   Scattered Clouds
6:55 AM 45.0 °F 40.6 °F 41.7 °F 88% 30.07 in 10.0 mi NW 8.1 mph - N/A   Overcast
7:15 AM 45.9 °F 41.7 °F 42.6 °F 88% 30.08 in 10.0 mi NNW 8.1 mph - N/A   Overcast
7:35 AM 47.3 °F - 43.7 °F 87% 30.08 in 10.0 mi NNW 8.1 mph - N/A   Overcast
7:55 AM 48.0 °F - 44.2 °F 87% 30.09 in 10.0 mi North 8.1 mph - N/A   Overcast
8:15 AM 49.6 °F - 44.8 °F 83% 30.09 in 10.0 mi NNW 8.1 mph - N/A   Overcast
8:35 AM 51.8 °F - 45.5 °F 79% 30.09 in 10.0 mi North 10.4 mph - N/A   Scattered Clouds
8:55 AM 53.2 °F - 46.0 °F 77% 30.09 in 10.0 mi North 11.5 mph - N/A   Clear
9:15 AM 54.1 °F - 46.8 °F 76% 30.09 in 10.0 mi North 11.5 mph 16.1 mph N/A   Scattered Clouds
9:35 AM 54.1 °F - 46.6 °F 76% 30.09 in 10.0 mi North 10.4 mph - N/A   Scattered Clouds
9:55 AM 55.2 °F - 46.8 °F 73% 30.09 in 10.0 mi North 12.7 mph 18.4 mph N/A   Scattered Clouds
10:15 AM 55.6 °F - 46.6 °F 72% 30.09 in 10.0 mi NE 10.4 mph - N/A   Scattered Clouds
10:35 AM 56.7 °F - 47.1 °F 70% 30.09 in 10.0 mi NNE 10.4 mph 19.6 mph N/A   Mostly Cloudy
10:55 AM 57.2 °F - 46.9 °F 69% 30.09 in 10.0 mi North 11.5 mph - N/A   Mostly Cloudy
11:15 AM 58.1 °F - 45.7 °F 63% 30.09 in 10.0 mi NNE 8.1 mph - N/A   Scattered Clouds
11:35 AM 58.3 °F - 44.1 °F 59% 30.09 in 10.0 mi NNE 6.9 mph - N/A   Scattered Clouds
11:55 AM 58.1 °F - 43.7 °F 59% 30.08 in 10.0 mi NNW 5.8 mph - N/A   Scattered Clouds
12:15 PM 59.9 °F - 42.4 °F 52% 30.08 in 10.0 mi NNE 6.9 mph - N/A   Mostly Cloudy
12:35 PM 59.9 °F - 42.3 °F 52% 30.07 in 10.0 mi Calm Calm - N/A   Mostly Cloudy
12:55 PM 61.0 °F - 40.3 °F 46% 30.06 in 10.0 mi North 3.5 mph - N/A   Mostly Cloudy
1:15 PM 59.7 °F - 37.9 °F 44% 30.06 in 10.0 mi North 3.5 mph - N/A   Mostly Cloudy
1:35 PM 61.5 °F - 39.0 °F 43% 30.05 in 10.0 mi North 4.6 mph - N/A   Mostly Cloudy
1:55 PM 62.2 °F - 38.3 °F 41% 30.04 in 10.0 mi NNW 4.6 mph - N/A   Mostly Cloudy
2:15 PM 62.6 °F - 37.8 °F 40% 30.04 in 10.0 mi ENE 3.5 mph - N/A   Overcast
2:35 PM 61.9 °F - 37.0 °F 40% 30.03 in 10.0 mi Calm Calm - N/A   Mostly Cloudy
2:55 PM 65.1 °F - 38.7 °F 38% 30.02 in 10.0 mi ENE 4.6 mph - N/A   Mostly Cloudy
3:15 PM 64.0 °F - 36.9 °F 37% 30.02 in 10.0 mi NNE 5.8 mph - N/A   Overcast
3:35 PM 64.2 °F - 36.7 °F 36% 30.02 in 10.0 mi NNE 5.8 mph - N/A   Overcast
3:55 PM 63.9 °F - 36.7 °F 37% 30.00 in 10.0 mi East 6.9 mph - N/A   Overcast
4:15 PM 64.4 °F - 36.7 °F 36% 30.00 in 10.0 mi SSE 3.5 mph - N/A   Overcast
4:35 PM 64.9 °F - 36.5 °F 35% 29.99 in 10.0 mi ENE 5.8 mph - N/A   Scattered Clouds
4:55 PM 65.7 °F - 35.8 °F 33% 29.99 in 10.0 mi North 4.6 mph - N/A   Mostly Cloudy
5:15 PM 66.4 °F - 35.6 °F 32% 29.98 in 10.0 mi West 5.8 mph - N/A   Mostly Cloudy
5:35 PM 65.3 °F - 35.2 °F 33% 29.98 in 10.0 mi North 3.5 mph - N/A   Scattered Clouds
5:55 PM 64.4 °F - 35.1 °F 34% 29.98 in 10.0 mi North 3.5 mph - N/A   Mostly Cloudy
6:15 PM 65.5 °F - 35.1 °F 32% 29.97 in 10.0 mi NE 4.6 mph - N/A   Mostly Cloudy
6:35 PM 64.4 °F - 34.5 °F 33% 29.97 in 10.0 mi Calm Calm - N/A   Scattered Clouds
6:55 PM 64.9 °F - 35.1 °F 33% 29.96 in 10.0 mi East 3.5 mph - N/A   Clear
7:15 PM 64.4 °F - 34.7 °F 33% 29.96 in 10.0 mi East 3.5 mph - N/A   Clear
7:35 PM 64.4 °F - 34.7 °F 33% 29.95 in 10.0 mi ENE 3.5 mph - N/A   Clear
7:55 PM 63.9 °F - 34.9 °F 34% 29.96 in 10.0 mi NE 3.5 mph - N/A   Clear
8:15 PM 63.0 °F - 35.6 °F 36% 29.96 in 10.0 mi Calm Calm - N/A   Clear
8:35 PM 59.7 °F - 38.8 °F 46% 29.96 in 10.0 mi Calm Calm - N/A   Clear
8:55 PM 59.5 °F - 37.8 °F 44% 29.96 in 10.0 mi ESE 3.5 mph - N/A   Clear
9:15 PM 57.0 °F - 38.7 °F 50% 29.97 in 10.0 mi ESE 3.5 mph - N/A   Clear
9:35 PM 55.6 °F - 38.8 °F 53% 29.97 in 10.0 mi ESE 3.5 mph - N/A   Clear
9:55 PM 55.0 °F - 38.8 °F 54% 29.97 in 10.0 mi SE 4.6 mph - N/A   Clear
10:35 PM 52.9 °F - 39.9 °F 61% 29.97 in 10.0 mi SE 6.9 mph - N/A   Clear
10:55 PM 52.2 °F - 40.1 °F 64% 29.97 in 10.0 mi SE 6.9 mph - N/A   Clear
11:15 PM 51.3 °F - 40.1 °F 66% 29.97 in 10.0 mi SE 6.9 mph - N/A   Clear
11:35 PM 51.3 °F - 39.9 °F 65% 29.96 in 10.0 mi SE 6.9 mph - N/A   Clear
11:55 PM 50.0 °F - 39.7 °F 68% 29.96 in 10.0 mi SE 6.9 mph - N/A   Clear